When you browse on this site, cookies collect data to enhance your experience and personalize the content and advertising you see.
Visit our Privacy Policy to learn more. By continuing to use the site, you agree to this use of cookies and data.
  • In United Kingdom
  • List of Countries
  • For 7 days
  • Water Temperature
  • Weather Map
  • Weather Widgets
  • user-avatar
    Login

    Hourly Weather Lampeter

    Today, 3 June, Wednesday

    Time Temperature Precipitation Wind Pressure Humidity
    00:00 +10°C° 0 mm 6 mps 756 mmHg 95%
    01:00 +9°C° 0.9 mm 6 mps 756 mmHg 93%
    02:00 +9°C° 0.9 mm 6 mps 756 mmHg 92%
    03:00 +8°C° 0.9 mm 6 mps 755 mmHg 91%
    04:00 +8°C° 0 mm 6 mps 756 mmHg 89%
    05:00 +8°C° 0 mm 5 mps 756 mmHg 87%
    06:00 +8°C° 0 mm 5 mps 756 mmHg 86%
    07:00 +9°C° 0 mm 5 mps 756 mmHg 80%
    08:00 +10°C° 0 mm 5 mps 756 mmHg 75%
    09:00 +10°C° 0 mm 5 mps 756 mmHg 69%
    10:00 +10°C° 0.1 mm 5 mps 756 mmHg 69%
    11:00 +12°C° 0.1 mm 5 mps 756 mmHg 68%
    12:00 +12°C° 0.1 mm 5 mps 756 mmHg 68%
    13:00 +12°C° 0 mm 5 mps 755 mmHg 69%
    14:00 +12°C° 0 mm 4 mps 755 mmHg 69%
    15:00 +12°C° 0 mm 4 mps 755 mmHg 70%
    16:00 +12°C° 0.1 mm 4 mps 754 mmHg 71%
    17:00 +11°C° 0.1 mm 4 mps 754 mmHg 72%
    18:00 +11°C° 0.1 mm 4 mps 754 mmHg 73%
    19:00 +10°C° 0 mm 3 mps 754 mmHg 76%
    20:00 +9°C° 0 mm 3 mps 754 mmHg 79%
    21:00 +8°C° 0 mm 2 mps 754 mmHg 82%
    22:00 +7°C° 0 mm 2 mps 753 mmHg 83%
    23:00 +7°C° 0 mm 2 mps 753 mmHg 83%

    Tomorrow, 4 June, Thursday

    Time Temperature Precipitation Wind Pressure Humidity
    00:00 +6°C° 0 mm 2 mps 753 mmHg 84%
    01:00 +7°C° 0 mm 1 mps 752 mmHg 85%
    02:00 +6°C° 0 mm 1 mps 752 mmHg 85%
    03:00 +6°C° 0 mm 1 mps 751 mmHg 86%
    04:00 +7°C° 0 mm 1 mps 751 mmHg 84%
    05:00 +8°C° 0 mm 1 mps 750 mmHg 82%
    06:00 +9°C° 0 mm 1 mps 750 mmHg 80%
    07:00 +9°C° 0 mm 2 mps 749 mmHg 74%
    08:00 +10°C° 0 mm 2 mps 749 mmHg 68%
    09:00 +13°C° 0 mm 2 mps 748 mmHg 62%
    10:00 +13°C° 0 mm 2 mps 748 mmHg 63%
    11:00 +13°C° 0 mm 2 mps 747 mmHg 65%
    12:00 +13°C° 0 mm 2 mps 747 mmHg 67%
    13:00 +13°C° 0.3 mm 2 mps 746 mmHg 69%
    14:00 +13°C° 0.3 mm 2 mps 746 mmHg 72%
    15:00 +13°C° 0.3 mm 2 mps 745 mmHg 75%
    16:00 +12°C° 0.3 mm 3 mps 745 mmHg 78%
    17:00 +11°C° 0.3 mm 3 mps 745 mmHg 81%
    18:00 +10°C° 0.3 mm 3 mps 744 mmHg 84%
    19:00 +9°C° 0.4 mm 3 mps 744 mmHg 86%
    20:00 +9°C° 0.4 mm 2 mps 744 mmHg 88%
    21:00 +9°C° 0.4 mm 1 mps 744 mmHg 91%
    22:00 +8°C° 0.2 mm 1 mps 744 mmHg 90%
    23:00 +8°C° 0.2 mm 1 mps 744 mmHg 90%

    Day after tomorrow, 5 June, Friday

    Time Temperature Precipitation Wind Pressure Humidity
    00:00 +8°C° 0.2 mm 1 mps 744 mmHg 90%
    01:00 +6°C° 0.1 mm 2 mps 744 mmHg 90%
    02:00 +6°C° 0.1 mm 2 mps 743 mmHg 89%
    03:00 +4°C° 0.1 mm 3 mps 743 mmHg 88%
    04:00 +5°C° 0 mm 3 mps 743 mmHg 86%
    05:00 +5°C° 0 mm 4 mps 742 mmHg 84%
    06:00 +6°C° 0 mm 4 mps 742 mmHg 82%
    07:00 +7°C° 0.1 mm 5 mps 742 mmHg 77%
    08:00 +8°C° 0.1 mm 5 mps 742 mmHg 72%
    09:00 +9°C° 0.1 mm 6 mps 741 mmHg 67%
    10:00 +9°C° 0.3 mm 6 mps 741 mmHg 64%
    11:00 +10°C° 0.3 mm 7 mps 741 mmHg 62%
    12:00 +11°C° 0.3 mm 7 mps 740 mmHg 60%
    13:00 +11°C° 0.4 mm 7 mps 740 mmHg 61%
    14:00 +11°C° 0.4 mm 8 mps 740 mmHg 63%
    15:00 +10°C° 0.4 mm 8 mps 740 mmHg 64%
    16:00 +10°C° 0.1 mm 9 mps 739 mmHg 63%
    17:00 +10°C° 0.1 mm 9 mps 739 mmHg 61%
    18:00 +8°C° 0.1 mm 9 mps 739 mmHg 60%
    19:00 +7°C° 0 mm 9 mps 739 mmHg 62%
    20:00 +6°C° 0 mm 9 mps 739 mmHg 64%
    21:00 +5°C° 0 mm 9 mps 738 mmHg 66%
    22:00 +5°C° 0.3 mm 9 mps 738 mmHg 72%
    23:00 +5°C° 0.3 mm 9 mps 737 mmHg 79%

    6 June, Saturday

    Time Temperature Precipitation Wind Pressure Humidity
    00:00 +5°C° 0.3 mm 10 mps 737 mmHg 86%
    01:00 +5°C° 0.2 mm 9 mps 737 mmHg 86%
    02:00 +6°C° 0.2 mm 9 mps 736 mmHg 86%
    03:00 +6°C° 0.2 mm 9 mps 736 mmHg 86%
    04:00 +7°C° 0.1 mm 9 mps 736 mmHg 85%
    05:00 +7°C° 0.1 mm 8 mps 736 mmHg 84%
    06:00 +9°C° 0.1 mm 8 mps 735 mmHg 83%
    07:00 +9°C° 0.1 mm 8 mps 736 mmHg 82%
    08:00 +9°C° 0.1 mm 8 mps 736 mmHg 82%
    09:00 +10°C° 0.1 mm 7 mps 736 mmHg 81%
    10:00 +11°C° 0.2 mm 7 mps 736 mmHg 77%
    11:00 +12°C° 0.2 mm 7 mps 736 mmHg 73%
    12:00 +14°C° 0.2 mm 7 mps 737 mmHg 68%
    13:00 +12°C° 0.2 mm 7 mps 737 mmHg 71%
    14:00 +13°C° 0.2 mm 6 mps 737 mmHg 73%
    15:00 +13°C° 0.2 mm 6 mps 738 mmHg 76%
    16:00 +13°C° 0.3 mm 6 mps 739 mmHg 77%
    17:00 +11°C° 0.3 mm 6 mps 739 mmHg 78%
    18:00 +11°C° 0.3 mm 6 mps 740 mmHg 79%
    19:00 +10°C° 0 mm 5 mps 741 mmHg 80%
    20:00 +10°C° 0 mm 4 mps 741 mmHg 82%
    21:00 +9°C° 0 mm 3 mps 742 mmHg 83%
    22:00 +9°C° 0 mm 3 mps 742 mmHg 83%
    23:00 +8°C° 0 mm 4 mps 743 mmHg 83%

    7 June, Sunday

    Time Temperature Precipitation Wind Pressure Humidity
    00:00 +7°C° 0 mm 4 mps 743 mmHg 83%
    01:00 +8°C° 0.1 mm 4 mps 743 mmHg 85%
    02:00 +8°C° 0.1 mm 4 mps 743 mmHg 86%
    03:00 +8°C° 0.1 mm 4 mps 743 mmHg 88%
    04:00 +8°C° 0.4 mm 4 mps 744 mmHg 89%
    05:00 +10°C° 0.4 mm 4 mps 744 mmHg 90%
    06:00 +10°C° 0.4 mm 3 mps 744 mmHg 92%
    07:00 +11°C° 0.1 mm 4 mps 745 mmHg 89%
    08:00 +12°C° 0.1 mm 4 mps 745 mmHg 87%
    09:00 +13°C° 0.1 mm 4 mps 746 mmHg 85%
    10:00 +13°C° 0.4 mm 4 mps 746 mmHg 84%
    11:00 +13°C° 0.4 mm 4 mps 746 mmHg 83%
    12:00 +14°C° 0.4 mm 4 mps 747 mmHg 82%
    13:00 +15°C° 0 mm 5 mps 747 mmHg 77%
    14:00 +16°C° 0 mm 6 mps 748 mmHg 72%
    15:00 +17°C° 0 mm 6 mps 748 mmHg 67%
    16:00 +16°C° 0.1 mm 6 mps 749 mmHg 69%
    17:00 +16°C° 0.1 mm 5 mps 749 mmHg 71%
    18:00 +15°C° 0.1 mm 5 mps 750 mmHg 74%
    19:00 +14°C° 0 mm 5 mps 750 mmHg 76%
    20:00 +12°C° 0 mm 4 mps 751 mmHg 79%
    21:00 +11°C° 0 mm 4 mps 752 mmHg 82%
    22:00 +10°C° 0 mm 4 mps 752 mmHg 82%
    23:00 +10°C° 0 mm 3 mps 752 mmHg 82%

    8 June, Monday

    Time Temperature Precipitation Wind Pressure Humidity
    00:00 +9°C° 0 mm 3 mps 753 mmHg 83%
    01:00 +9°C° 0 mm 3 mps 753 mmHg 82%
    02:00 +9°C° 0 mm 3 mps 753 mmHg 82%
    03:00 +9°C° 0 mm 3 mps 753 mmHg 81%
    04:00 +9°C° 0 mm 3 mps 754 mmHg 80%
    05:00 +10°C° 0 mm 4 mps 754 mmHg 80%
    06:00 +10°C° 0 mm 4 mps 754 mmHg 79%
    07:00 +11°C° 0 mm 4 mps 755 mmHg 78%
    08:00 +12°C° 0 mm 4 mps 755 mmHg 76%
    09:00 +12°C° 0 mm 5 mps 755 mmHg 75%
    10:00 +12°C° 0 mm 5 mps 756 mmHg 75%
    11:00 +13°C° 0 mm 5 mps 756 mmHg 74%
    12:00 +13°C° 0 mm 5 mps 756 mmHg 73%
    13:00 +13°C° 0 mm 4 mps 756 mmHg 74%
    14:00 +13°C° 0 mm 4 mps 756 mmHg 74%
    15:00 +13°C° 0 mm 4 mps 756 mmHg 75%
    16:00 +12°C° 0 mm 4 mps 756 mmHg 76%
    17:00 +12°C° 0 mm 4 mps 756 mmHg 78%
    18:00 +11°C° 0 mm 3 mps 757 mmHg 80%
    19:00 +10°C° 0 mm 3 mps 757 mmHg 82%
    20:00 +9°C° 0 mm 3 mps 757 mmHg 84%
    21:00 +9°C° 0 mm 3 mps 757 mmHg 87%
    22:00 +9°C° 0 mm 2 mps 757 mmHg 86%
    23:00 +9°C° 0 mm 2 mps 757 mmHg 86%
    Show more